[[{"header":{"parameterUnit":"m.s-1","parameterCategory":2,"la1":30.2991,"la2":30.254,"lo1":-89.0895,"lo2":-89.0444,"dy":0.0017,"dx":0.0017,"nx":28,"ny":28,"refTime":"2024-02-17T09:00:00:Z","depth":"0","parameterNumber":2,"parameterNumberName":"U-component_of_CURRENTS"},"data":[0,0,0,0,0,0,0,0,0,0,0,0,0,0,0,0,0,0,0,0,0,0,0,0,0,0,0,0,0,0,0,0,0,0,0,0,0,0,0,0,0,0,0,0,0,0,0,0,0,0,0,0,0,0,0,0,0,0,0.2602,0.2602,0,0.2652,0.2653,0.2653,0.2675,0.2675,0.2675,0.2675,0.2761,0.2764,0.2766,0,0,0,0,0,0,0,0,0,0,0,0,0,0.2554,0.2554,0.2602,0.2602,0.2603,0.2652,0.2653,0.2653,0.2675,0.2675,0.2675,0.2675,0.2761,0.2763,0.2766,0,0,0,0,0,0,0,0,0,0,0,0,0,0.2586,0.2555,0.2602,0.262,0.2623,0.2652,0.2653,0.2654,0.2675,0.2675,0.2675,0.2675,0.276,0.2763,0.2767,0.2788,0,0,0.2777,0.2779,0,0,0,0,0,0,0,0,0.2584,0.2587,0.2617,0.2619,0.2622,0.2658,0.2668,0.2701,0.2675,0.2654,0.2675,0.2675,0.2731,0.2737,0.2744,0.2792,0.2796,0.2777,0.278,0.2781,0.2782,0,0,0,0,0,0,0,0.2581,0.2585,0.2621,0.2618,0.2621,0.2637,0.2641,0.2674,0.2692,0.2656,0.2658,0.2665,0.2732,0.2741,0.2747,0.2797,0.2777,0.278,0.2783,0.2784,0.2922,0.2924,0,0,0,0,0,0,0.2576,0.2583,0.2619,0.2622,0.2603,0.2638,0.2642,0.2646,0.2691,0.2698,0.2665,0.2666,0.2735,0.2743,0.275,0.2829,0.2781,0.2784,0.2786,0.2921,0.2922,0.2924,0,0,0,0,0,0,0.2574,0.2578,0.2617,0.2605,0.2611,0.2638,0.2642,0.2647,0.2659,0.2697,0.2705,0.2673,0.2735,0.2745,0.2776,0.2831,0.2786,0.2789,0.2919,0.2921,0.2923,0.2955,0,0,0,0,0,0,0.2573,0.2577,0.2578,0.2604,0.2612,0.2644,0.2643,0.2648,0.2663,0.2665,0.2707,0.2714,0.2736,0.2771,0.278,0.2835,0.2792,0.2917,0.292,0.2923,0.2952,0.2959,0.2964,0,0,0,0,0,0.2571,0.2588,0.2578,0.2582,0.2611,0.2645,0.265,0.2669,0.2664,0.2677,0.2693,0.2713,0.2798,0.2774,0.2784,0.2842,0.2915,0.2919,0.2922,0.295,0.2957,0.2964,0,0,0,0,0,0,0.2585,0.2592,0.2582,0.2603,0.262,0.2649,0.2669,0.2669,0.2691,0.2694,0.2717,0.2727,0.2782,0.2799,0.2772,0.2891,0.2867,0.2873,0.2885,0.2892,0.2898,0.3014,0.2795,0,0,0,0,0,0.2581,0.2592,0.2599,0.2623,0.2625,0.264,0.2654,0.2664,0.2687,0.2697,0.272,0.2757,0.2806,0.2833,0.2871,0.2924,0.3015,0.2973,0.2979,0.2984,0.3086,0.3205,0.3233,0.2936,0.2936,0.2936,0,0,0.2607,0.2604,0.2619,0.2625,0.2639,0.2697,0.265,0.2679,0.2741,0.2705,0.2782,0.2773,0.2821,0.2885,0.2914,0.2906,0.3112,0.2988,0.2992,0.3094,0.3213,0.3242,0.3268,0.2938,0.2938,0.2938,0,0,0.2691,0.2646,0.2697,0.271,0.2724,0.273,0.2737,0.2754,0.2767,0.2806,0.2817,0.2851,0.2889,0.2964,0.3001,0.3067,0.3132,0.3051,0.3188,0.3299,0.3326,0.3351,0.3493,0.3531,0.3061,0.3061,0.3062,0,0.2741,0.2778,0.2721,0.278,0.2818,0.2754,0.2843,0.285,0.2878,0.2914,0.2839,0.2953,0.2958,0.3113,0.3131,0.3093,0.3167,0.3147,0.3311,0.3338,0.3363,0.3503,0.3544,0.3063,0.3063,0.3063,0.3063,0,0.2874,0.29,0.293,0.2983,0.3009,0.3058,0.3061,0.3078,0.3048,0.3063,0.3144,0.313,0.3221,0.3198,0.3187,0.3375,0.3373,0.3293,0.3298,0.3396,0.3535,0.3578,0.3066,0.3066,0.3065,0.3064,0,0,0.3054,0.303,0.3054,0.3089,0.3114,0.3157,0.3238,0.3307,0.3389,0.335,0.3473,0.3505,0.3474,0.3522,0.3494,0.3582,0.3779,0.3523,0.3527,0.3679,0.4064,0.395,0.3985,0.3704,0.3712,0.3718,0.4086,0,0.3203,0.3293,0.3273,0.3409,0.3456,0.3431,0.3524,0.357,0.3567,0.3648,0.3629,0.3713,0.3603,0.3634,0.3709,0.3754,0.3896,0.3691,0.3942,0.3953,0.3848,0.4032,0.381,0.4109,0.4128,0.4135,0.414,0,0.3395,0.3403,0.3517,0.3582,0.3614,0.3694,0.3815,0.3891,0.3967,0.3966,0.4025,0.3994,0.4134,0.3984,0.4204,0.4067,0.4129,0.4148,0.4159,0.4099,0.392,0.4018,0.4186,0.4027,0.4206,0.42,0.4196,0,0.353,0.3617,0.3686,0.3711,0.3764,0.3841,0.39,0.3991,0.4069,0.4185,0.4241,0.4345,0.4404,0.4486,0.448,0.4376,0.4703,0.4549,0.4545,0.4537,0.4437,0.4405,0.4505,0.4802,0.4801,0.48,0.4799,0,0.3699,0.3786,0.3741,0.3777,0.3912,0.3943,0.4111,0.4175,0.4293,0.4411,0.4417,0.4528,0.4529,0.4645,0.4642,0.4737,0.4848,0.4684,0.4657,0.4433,0.4399,0.4321,0.4227,0.4814,0.4811,0.4808,0.4806,0,0.3875,0.3827,0.39,0.3926,0.3959,0.4058,0.4196,0.4316,0.4419,0.4579,0.4627,0.4734,0.4867,0.4881,0.5033,0.4952,0.4896,0.506,0.4806,0.4741,0.45,0.4414,0.4475,0.4358,0.5143,0.5143,0.5142,0,0.3974,0.402,0.3995,0.401,0.4026,0.4149,0.4246,0.4362,0.4471,0.469,0.4776,0.4951,0.5027,0.5202,0.5108,0.5161,0.4965,0.4997,0.4755,0.4564,0.4452,0.4258,0.4141,0.465,0.4646,0.4642,0.4639,0,0.4178,0.4135,0.4131,0.4128,0.4187,0.4279,0.4406,0.4489,0.4637,0.4748,0.4909,0.4998,0.513,0.5026,0.5061,0.504,0.4705,0.4926,0.4807,0.4192,0.3924,0.3766,0.4352,0.4609,0.4612,0.4614,0.4616,0.4617,0.4309,0.4304,0.4238,0.4261,0.4308,0.4366,0.44,0.4509,0.4624,0.4703,0.4884,0.4911,0.4883,0.4856,0.4811,0.4526,0.4545,0.4347,0.4311,0.4175,0.3898,0.4437,0.457,0.4573,0.4575,0.4578,0.4579,0,0.4405,0.4374,0.4398,0.4335,0.4371,0.4389,0.4476,0.4445,0.4471,0.4584,0.4642,0.4531,0.4434,0.4349,0.4096,0.392,0.3739,0.381,0.3497,0.345,0.4022,0.3825,0.3704,0.3704,0.3704,0.3704,0.3705,0.3705,0.4442,0.4422,0.4387,0.4392,0.4368,0.4329,0.4319,0.4256,0.4269,0.4129,0.4013,0.3995,0.3924,0.3775,0.3507,0.3422,0.3155,0.3023,0.3064,0.3433,0.3478,0.3521,0.3315,0.3089,0.3088,0.2329,0.2323,0.2319]},{"header":{"parameterUnit":"m.s-1","parameterCategory":2,"la1":30.2991,"la2":30.254,"lo1":-89.0895,"lo2":-89.0444,"dy":0.0017,"dx":0.0017,"nx":28,"ny":28,"refTime":"2024-02-17T09:00:00:Z","depth":"0","parameterNumber":3,"parameterNumberName":"V-component_of_CURRENTS"},"data":[0,0,0,0,0,0,0,0,0,0,0,0,0,0,0,0,0,0,0,0,0,0,0,0,0,0,0,0,0,0,0,0,0,0,0,0,0,0,0,0,0,0,0,0,0,0,0,0,0,0,0,0,0,0,0,0,0,0,0.0223,0.0223,0,0.0149,0.0148,0.0147,0.0093,0.0093,0.0093,0.0092,0.0006,0.0005,0.0003,0,0,0,0,0,0,0,0,0,0,0,0,0,0.0257,0.0257,0.0223,0.0223,0.0222,0.015,0.0148,0.0147,0.0093,0.0093,0.0093,0.0092,0.0007,0.0005,0.0002,0,0,0,0,0,0,0,0,0,0,0,0,0,0.0217,0.0257,0.0223,0.0188,0.0184,0.015,0.0148,0.0147,0.0093,0.0093,0.0092,0.0092,0.0008,0.0005,0.0002,-0.0008,0,0,-0.0007,-0.0009,0,0,0,0,0,0,0,0,0.022,0.0216,0.0194,0.019,0.0186,0.0132,0.0129,0.0095,0.0093,0.0125,0.0092,0.0092,0.0049,0.0043,0.0027,-0.0013,-0.0016,-0.0008,-0.0009,-0.0011,-0.0012,0,0,0,0,0,0,0,0.0222,0.0218,0.0192,0.0193,0.0188,0.0155,0.0149,0.0122,0.0089,0.0123,0.0119,0.0114,0.0046,0.003,0.0024,-0.0017,-0.0007,-0.001,-0.0012,-0.0013,-0.0056,-0.0055,0,0,0,0,0,0,0.0239,0.0221,0.0194,0.019,0.0204,0.0155,0.0148,0.0148,0.0089,0.008,0.0115,0.0112,0.0035,0.0028,0.0021,0.003,-0.0011,-0.0014,-0.0015,-0.0056,-0.0056,-0.0055,0,0,0,0,0,0,0.0241,0.0238,0.0197,0.0205,0.0198,0.0156,0.0155,0.0147,0.0134,0.0084,0.0074,0.0112,0.0035,0.0025,0.0006,0.0026,-0.0015,-0.0018,-0.0057,-0.0056,-0.0055,0.0033,0,0,0,0,0,0,0.0242,0.0239,0.0244,0.0207,0.0198,0.0189,0.0155,0.0146,0.0133,0.0129,0.0078,0.0069,0.0034,0.0011,0.0003,0.0021,-0.002,-0.0058,-0.0057,-0.0056,0.0029,0.0037,0.0044,0,0,0,0,0,0.0243,0.0259,0.0244,0.0241,0.0207,0.019,0.0183,0.0149,0.0133,0.0135,0.01,0.0071,0.0013,0.0009,-0.0001,0.0017,-0.0059,-0.0057,-0.0056,0.0026,0.0036,0.0043,0,0,0,0,0,0,0.0279,0.0254,0.0237,0.0245,0.0223,0.0182,0.0181,0.0158,0.0131,0.0127,0.0077,0.0067,0.0056,0.0025,0.0021,0.0008,-0.0027,-0.0027,0.0039,0.0047,0.0054,0.01,-0.0023,0,0,0,0,0,0.0289,0.0292,0.0262,0.0268,0.0261,0.0222,0.0211,0.019,0.0161,0.0148,0.0113,0.0079,0.0054,0.0042,0.0012,0.0007,0.001,0.0012,0.0019,0.0025,0.0056,0.0064,0.0075,-0.005,-0.005,-0.005,0,0,0.0305,0.0291,0.0293,0.0275,0.0254,0.0262,0.0214,0.0207,0.0213,0.0144,0.0142,0.01,0.0057,0.0049,0.0043,0.0028,0.0065,0.0027,0.0033,0.0061,0.0067,0.0079,0.009,-0.0049,-0.0049,-0.0049,0,0,0.0348,0.0326,0.0348,0.0336,0.0316,0.0293,0.0297,0.0262,0.0247,0.0234,0.0191,0.017,0.0123,0.0105,0.0088,0.0119,0.01,0.0101,0.0178,0.0185,0.0196,0.0206,0.0244,0.0257,0.0108,0.0108,0.0108,0,0.0369,0.0392,0.0351,0.0371,0.0377,0.0316,0.0349,0.0321,0.0284,0.0287,0.0246,0.0205,0.0155,0.0171,0.0174,0.0138,0.0149,0.0149,0.0197,0.0207,0.0215,0.0252,0.0264,0.0113,0.0112,0.0112,0.0111,0,0.0428,0.0448,0.046,0.0467,0.0465,0.048,0.0446,0.0437,0.0405,0.0381,0.0378,0.0313,0.0297,0.0269,0.0226,0.0265,0.0258,0.0204,0.0182,0.0234,0.0268,0.028,0.0119,0.0118,0.0116,0.0115,0,0,0.0486,0.0502,0.0508,0.0534,0.0523,0.0529,0.0542,0.0546,0.0567,0.0513,0.0548,0.0486,0.0452,0.0433,0.0378,0.0377,0.0431,0.0324,0.0322,0.0376,0.0481,0.0437,0.0445,0.0384,0.0386,0.0388,0.0488,0,0.0552,0.061,0.0606,0.0668,0.0699,0.0666,0.069,0.0679,0.0652,0.066,0.0602,0.0601,0.0514,0.0511,0.0497,0.0441,0.0463,0.0411,0.0411,0.0413,0.0378,0.0457,0.0438,0.0522,0.0499,0.0501,0.0503,0,0.0621,0.0652,0.0723,0.0779,0.0792,0.0819,0.0853,0.0867,0.0853,0.0836,0.0824,0.077,0.0765,0.0671,0.0649,0.0621,0.0576,0.0531,0.0532,0.0473,0.039,0.0461,0.0543,0.0342,0.052,0.0519,0.0517,0,0.0673,0.0743,0.0804,0.0818,0.0859,0.0896,0.092,0.0923,0.0946,0.0954,0.0977,0.0944,0.0948,0.0877,0.0778,0.0719,0.0761,0.0659,0.0597,0.0594,0.0571,0.0562,0.0472,0.0675,0.0675,0.0675,0.0675,0,0.0742,0.0797,0.0834,0.0862,0.0942,0.0962,0.1034,0.1046,0.1081,0.1138,0.1078,0.1137,0.0999,0.0986,0.0867,0.0793,0.0838,0.0651,0.0624,0.0601,0.0593,0.0408,0.0294,0.0679,0.0678,0.0677,0.0676,0,0.0782,0.0807,0.0875,0.0935,0.0961,0.1012,0.1089,0.1138,0.1181,0.126,0.1277,0.13,0.1307,0.118,0.1096,0.093,0.0737,0.0809,0.0808,0.0776,0.0459,0.0352,0.0295,0.0213,0.0737,0.0736,0.0736,0,0.0808,0.0849,0.0904,0.0936,0.0966,0.1042,0.1094,0.1162,0.1225,0.1374,0.143,0.1489,0.1571,0.1448,0.1181,0.1008,0.0811,0.0818,0.0675,0.0476,0.0337,0.027,0.02,0.0697,0.0697,0.0696,0.0696,0,0.0862,0.0869,0.09,0.0949,0.1009,0.1096,0.1191,0.1261,0.1374,0.1503,0.1705,0.1813,0.1724,0.1563,0.1289,0.1118,0.0652,0.0798,0.0594,0.0315,0.024,0.0137,0.0613,0.0691,0.0692,0.0692,0.0692,0.0693,0.088,0.0891,0.091,0.0966,0.1038,0.1156,0.1251,0.1393,0.1569,0.1829,0.1914,0.218,0.1873,0.1521,0.1231,0.0636,0.0653,0.0419,0.032,0.0284,0.015,0.0628,0.0651,0.0651,0.0651,0.0651,0.0651,0,0.0882,0.0895,0.0936,0.1002,0.1095,0.1141,0.1319,0.1464,0.1718,0.2036,0.2275,0.2346,0.1917,0.145,0.064,0.0219,0.0079,-0.0005,-0.0117,-0.0158,0.0276,0.0212,0.0137,0.0137,0.0137,0.0137,0.0138,0.0138,0.0877,0.0895,0.0908,0.1039,0.1111,0.1279,0.14,0.1656,0.1929,0.2372,0.2637,0.2803,0.2413,0.0945,-0.0035,-0.0244,-0.0511,-0.0556,-0.068,-0.0432,-0.0401,-0.0372,-0.0461,-0.0675,-0.0676,-0.1071,-0.1076,-0.1079]}],[{"header":{"parameterUnit":"m.s-1","parameterCategory":2,"la1":30.2991,"la2":30.254,"lo1":-89.0895,"lo2":-89.0444,"dy":0.0017,"dx":0.0017,"nx":28,"ny":28,"refTime":"2024-02-17T09:00:00:Z","depth":"2","parameterNumber":2,"parameterNumberName":"U-component_of_CURRENTS"},"data":[0,0,0,0,0,0,0,0,0,0,0,0,0,0,0,0,0,0,0,0,0,0,0,0,0,0,0,0,0,0,0,0,0,0,0,0,0,0,0,0,0,0,0,0,0,0,0,0,0,0,0,0,0,0,0,0,0,0,0.213,0.2131,0,0.2168,0.2168,0.2168,0.2181,0.2181,0.2181,0.2181,0.2206,0.2207,0.2208,0,0,0,0,0,0,0,0,0,0,0,0,0,0.208,0.2081,0.213,0.2131,0.2131,0.2168,0.2168,0.2168,0.2181,0.2181,0.2181,0.2181,0.2206,0.2207,0.2208,0,0,0,0,0,0,0,0,0,0,0,0,0,0.2106,0.2081,0.213,0.2143,0.2145,0.2167,0.2168,0.2168,0.2181,0.2181,0.2181,0.2181,0.2206,0.2207,0.2208,0.2214,0,0,0.2211,0.2212,0,0,0,0,0,0,0,0,0.2105,0.2108,0.2141,0.2142,0.2144,0.2171,0.216,0.2184,0.2181,0.2165,0.2181,0.2181,0.2195,0.2197,0.2201,0.2215,0.2217,0.2211,0.2212,0.2212,0.2213,0,0,0,0,0,0,0,0.2103,0.2106,0.2143,0.2141,0.2144,0.2151,0.2155,0.2164,0.2178,0.2167,0.2168,0.2175,0.2195,0.22,0.2202,0.2217,0.2211,0.2212,0.2213,0.2213,0.2292,0.2293,0,0,0,0,0,0,0.2101,0.2105,0.2142,0.2144,0.2126,0.2152,0.2156,0.2161,0.2178,0.2181,0.2175,0.2175,0.2199,0.2201,0.2203,0.2255,0.2212,0.2213,0.2214,0.2291,0.2292,0.2294,0,0,0,0,0,0,0.21,0.2104,0.214,0.2127,0.2132,0.2153,0.2159,0.2162,0.2177,0.2185,0.2187,0.2188,0.2199,0.2202,0.2227,0.2255,0.2214,0.2215,0.2289,0.2291,0.2293,0.2331,0,0,0,0,0,0,0.2098,0.2103,0.2109,0.2127,0.2133,0.2163,0.2159,0.2163,0.2181,0.2183,0.2197,0.2199,0.2199,0.2226,0.2228,0.2255,0.2215,0.2287,0.229,0.2292,0.2328,0.2335,0.234,0,0,0,0,0,0.2097,0.2105,0.2109,0.2114,0.2139,0.2164,0.2168,0.2181,0.2182,0.2193,0.2206,0.2199,0.2245,0.2227,0.223,0.2258,0.2286,0.2289,0.2292,0.2326,0.2333,0.234,0,0,0,0,0,0,0.2085,0.2108,0.2112,0.2127,0.2148,0.2167,0.2181,0.2188,0.2206,0.221,0.2213,0.2216,0.2249,0.225,0.223,0.2291,0.2266,0.227,0.2291,0.2298,0.2304,0.2335,0.2216,0,0,0,0,0,0.2085,0.2099,0.2121,0.2134,0.2146,0.2164,0.2177,0.2187,0.2205,0.2214,0.2224,0.2241,0.2263,0.2277,0.2291,0.2322,0.2361,0.2344,0.235,0.2355,0.2384,0.2471,0.2488,0.2305,0.2305,0.2305,0,0,0.2085,0.21,0.2108,0.2133,0.215,0.2181,0.2172,0.2197,0.2228,0.2214,0.2254,0.2258,0.2275,0.2311,0.2327,0.2317,0.2425,0.2359,0.2363,0.239,0.2477,0.2495,0.2511,0.2307,0.2307,0.2306,0,0,0.2102,0.2106,0.213,0.2146,0.2176,0.2194,0.2205,0.2231,0.2247,0.2277,0.2284,0.2312,0.233,0.2362,0.2377,0.2427,0.245,0.2425,0.2486,0.2569,0.2585,0.26,0.2663,0.2683,0.2433,0.2433,0.2433,0,0.2108,0.2134,0.214,0.2168,0.2191,0.2205,0.2241,0.2262,0.2293,0.2325,0.2294,0.2359,0.2362,0.2436,0.2453,0.2443,0.249,0.2452,0.2579,0.2594,0.2609,0.2669,0.2691,0.2435,0.2435,0.2435,0.2434,0,0.2143,0.2165,0.218,0.2224,0.2247,0.2279,0.231,0.2344,0.2357,0.2381,0.244,0.244,0.2493,0.2486,0.2483,0.2591,0.259,0.2571,0.2561,0.263,0.2688,0.271,0.2438,0.2438,0.2437,0.2436,0,0,0.2179,0.2202,0.222,0.2231,0.228,0.2302,0.2367,0.2436,0.2489,0.2502,0.2578,0.2599,0.2609,0.263,0.2629,0.2688,0.2812,0.268,0.2684,0.2744,0.3,0.2907,0.2922,0.2821,0.2826,0.2829,0.2996,0,0.222,0.2267,0.2283,0.2336,0.2355,0.2391,0.2443,0.2502,0.2549,0.2622,0.2648,0.2707,0.2663,0.2693,0.275,0.2802,0.2875,0.2769,0.2925,0.2929,0.284,0.2946,0.2686,0.2806,0.3017,0.3021,0.3023,0,0.2264,0.2287,0.2344,0.2371,0.2389,0.2433,0.2534,0.2578,0.2687,0.2725,0.2804,0.283,0.2934,0.287,0.3018,0.2957,0.3001,0.3021,0.3028,0.295,0.2879,0.2774,0.2838,0.306,0.3057,0.3055,0.3052,0,0.2273,0.2329,0.2375,0.2388,0.2433,0.2485,0.2525,0.2622,0.2658,0.2819,0.2855,0.2987,0.3043,0.313,0.3171,0.3126,0.3318,0.3259,0.3217,0.321,0.3025,0.2994,0.3389,0.3389,0.3389,0.3388,0.3388,0,0.2288,0.2309,0.2385,0.24,0.2444,0.249,0.256,0.2627,0.2731,0.278,0.2905,0.296,0.3114,0.3217,0.3253,0.331,0.3398,0.3268,0.3265,0.3027,0.2996,0.3238,0.3218,0.3394,0.3393,0.3392,0.3391,0,0.2235,0.2294,0.2323,0.2411,0.2435,0.246,0.2522,0.2557,0.2683,0.2761,0.2816,0.2991,0.3151,0.3269,0.3438,0.3396,0.3469,0.3466,0.3168,0.3127,0.3286,0.3266,0.3456,0.3454,0.3453,0.3452,0.3451,0,0.2166,0.2216,0.2315,0.2314,0.2344,0.2391,0.2403,0.252,0.2571,0.2742,0.2773,0.2984,0.3088,0.3298,0.3344,0.3446,0.3497,0.322,0.3076,0.3324,0.3303,0.3285,0.3267,0.2848,0.2842,0.2838,0.2834,0,0.2056,0.2145,0.2171,0.2221,0.2241,0.2248,0.2306,0.2329,0.2475,0.2561,0.2712,0.2822,0.3037,0.3054,0.3182,0.3175,0.3184,0.3124,0.3512,0.2854,0.2759,0.2735,0.2737,0.2792,0.2796,0.2799,0.2802,0.2803,0.1948,0.1971,0.2071,0.2079,0.2101,0.2106,0.2101,0.2174,0.2241,0.2343,0.2542,0.2636,0.2765,0.2841,0.28,0.2786,0.2992,0.285,0.2862,0.2879,0.2762,0.2668,0.2662,0.2665,0.2668,0.2671,0.2673,0,0.1832,0.1886,0.1902,0.1944,0.1922,0.2005,0.2024,0.1982,0.2017,0.2165,0.2294,0.2205,0.2258,0.2398,0.2315,0.2323,0.226,0.2226,0.2128,0.2174,0.2213,0.2057,0.1773,0.177,0.1767,0.1764,0,0,0.178,0.1763,0.1798,0.1747,0.1792,0.1728,0.1719,0.171,0.1766,0.1756,0.185,0.2107,0.2296,0.1991,0.1975,0.1861,0.1979,0.1776,0.2506,0.2434,0.2468,0.2595,0.2409,0,0,0,0,0]},{"header":{"parameterUnit":"m.s-1","parameterCategory":2,"la1":30.2991,"la2":30.254,"lo1":-89.0895,"lo2":-89.0444,"dy":0.0017,"dx":0.0017,"nx":28,"ny":28,"refTime":"2024-02-17T09:00:00:Z","depth":"2","parameterNumber":3,"parameterNumberName":"V-component_of_CURRENTS"},"data":[0,0,0,0,0,0,0,0,0,0,0,0,0,0,0,0,0,0,0,0,0,0,0,0,0,0,0,0,0,0,0,0,0,0,0,0,0,0,0,0,0,0,0,0,0,0,0,0,0,0,0,0,0,0,0,0,0,0,0.0143,0.0143,0,0.0079,0.0078,0.0077,0.0032,0.0032,0.0031,0.0031,-0.0039,-0.004,-0.0042,0,0,0,0,0,0,0,0,0,0,0,0,0,0.0176,0.0176,0.0143,0.0143,0.0142,0.0079,0.0078,0.0077,0.0032,0.0032,0.0031,0.0031,-0.0038,-0.004,-0.0042,0,0,0,0,0,0,0,0,0,0,0,0,0,0.0141,0.0176,0.0143,0.0113,0.011,0.0079,0.0078,0.0077,0.0032,0.0032,0.0031,0.0031,-0.0038,-0.004,-0.0042,-0.0051,0,0,-0.005,-0.0051,0,0,0,0,0,0,0,0,0.0143,0.0139,0.0118,0.0115,0.0111,0.0064,0.0064,0.0034,0.0032,0.006,0.0031,0.0031,-0.0003,-0.0009,-0.0022,-0.0055,-0.0058,-0.005,-0.0052,-0.0053,-0.0054,0,0,0,0,0,0,0,0.0145,0.0142,0.0116,0.0118,0.0113,0.0085,0.008,0.0058,0.0029,0.0057,0.0054,0.005,-0.0006,-0.002,-0.0024,-0.0059,-0.005,-0.0052,-0.0054,-0.0055,-0.009,-0.0089,0,0,0,0,0,0,0.016,0.0144,0.0118,0.0114,0.0128,0.0085,0.0079,0.0079,0.003,0.0022,0.005,0.0048,-0.0015,-0.0021,-0.0027,-0.0025,-0.0053,-0.0055,-0.0057,-0.009,-0.009,-0.0089,0,0,0,0,0,0,0.0161,0.0158,0.0121,0.0129,0.0122,0.0086,0.0085,0.0078,0.0067,0.0025,0.0017,0.0047,-0.0016,-0.0023,-0.004,-0.0028,-0.0056,-0.0059,-0.0091,-0.009,-0.009,-0.003,0,0,0,0,0,0,0.0162,0.0159,0.0163,0.013,0.0123,0.0112,0.0085,0.0077,0.0065,0.0061,0.0019,0.0012,-0.0017,-0.0036,-0.0042,-0.0032,-0.0061,-0.0092,-0.0091,-0.009,-0.0033,-0.0028,-0.0023,0,0,0,0,0,0.0163,0.0173,0.0163,0.016,0.0129,0.0113,0.0107,0.0078,0.0065,0.0065,0.0037,0.0014,-0.0034,-0.0037,-0.0045,-0.0036,-0.0092,-0.0091,-0.009,-0.0035,-0.0029,-0.0023,0,0,0,0,0,0,0.0186,0.0168,0.0157,0.016,0.0142,0.0106,0.0103,0.0085,0.0062,0.006,0.0019,0.001,-0.0001,-0.0025,-0.0028,-0.0042,-0.0066,-0.0066,-0.0022,-0.0016,-0.0011,0.0004,-0.0063,0,0,0,0,0,0.0195,0.0199,0.0174,0.0176,0.0171,0.0139,0.0129,0.0112,0.0087,0.0076,0.0047,0.0019,-0.0003,-0.0013,-0.0038,-0.0045,-0.0067,-0.0043,-0.0038,-0.0033,-0.0026,-0.0048,-0.0044,-0.0085,-0.0085,-0.0085,0,0,0.0202,0.0194,0.0195,0.0182,0.0165,0.0164,0.0132,0.0124,0.0123,0.0073,0.0065,0.0035,-0.0001,-0.0011,-0.0017,-0.0028,-0.0033,-0.0032,-0.0028,-0.0023,-0.0046,-0.0042,-0.0039,-0.0084,-0.0084,-0.0084,0,0,0.0224,0.0216,0.0227,0.0219,0.0204,0.0186,0.0189,0.0161,0.0149,0.0136,0.0102,0.0082,0.0046,0.0025,0.0009,0.0029,-0.0007,0.0021,0.0059,0.0039,0.0042,0.0045,0.0024,0.0024,0.0026,0.0026,0.0026,0,0.0232,0.0247,0.0227,0.0236,0.0237,0.0202,0.0216,0.0198,0.0167,0.0163,0.0143,0.0094,0.0064,0.0052,0.0059,0.0041,0.0022,0.004,0.0046,0.0048,0.0049,0.0027,0.0027,0.0029,0.0028,0.0028,0.0028,0,0.026,0.0274,0.0282,0.0285,0.0281,0.0289,0.0267,0.0261,0.0242,0.022,0.0203,0.0158,0.0131,0.0118,0.0093,0.0093,0.0074,0.0053,0.0032,0.0057,0.0032,0.0031,0.0033,0.0032,0.0031,0.003,0,0,0.0269,0.0298,0.0299,0.0322,0.0312,0.0317,0.0319,0.0313,0.0322,0.0281,0.0285,0.0239,0.0212,0.0193,0.0157,0.0138,0.0133,0.0108,0.0105,0.009,0.0087,0.0052,0.0046,0.0113,0.0113,0.0113,0.0066,0,0.0297,0.0343,0.0341,0.0381,0.0406,0.0386,0.0394,0.0383,0.0363,0.0358,0.0306,0.0295,0.0241,0.0236,0.0205,0.0155,0.0131,0.0147,0.0062,0.006,0.0028,0.0044,0.0069,0.0028,0.0064,0.0064,0.0064,0,0.0321,0.0356,0.0409,0.0453,0.046,0.0477,0.0494,0.0497,0.0473,0.0458,0.0425,0.038,0.0346,0.0299,0.0215,0.0228,0.0166,0.0118,0.0115,0.006,0.0021,0.0007,0.0023,0.006,0.0061,0.0061,0.0061,0,0.0352,0.0401,0.0455,0.0468,0.0504,0.0528,0.0542,0.0532,0.0555,0.0529,0.0537,0.0466,0.0454,0.0359,0.0254,0.0238,0.0161,0.0124,0.0028,0.0025,0.0019,0.0015,0.0065,0.0065,0.0065,0.0065,0.0065,0,0.0387,0.0427,0.0483,0.0516,0.058,0.0583,0.0642,0.0636,0.0652,0.0702,0.06,0.0625,0.0471,0.0403,0.0286,0.0158,0.0183,0.0039,0.0012,0.004,0.0038,0.0043,0.0041,0.0063,0.0064,0.0064,0.0064,0,0.0413,0.0445,0.0516,0.058,0.0603,0.0652,0.0725,0.0772,0.0763,0.0827,0.0829,0.0757,0.0669,0.05,0.0359,0.0217,0.0089,0.0037,0.0078,0.0055,-0.0046,-0.0044,-0.0084,-0.0086,-0.0087,-0.0088,-0.0089,0,0.0439,0.0479,0.057,0.0624,0.0662,0.0738,0.0799,0.0828,0.0898,0.0929,0.098,0.0899,0.0872,0.0614,0.0363,0.0131,0.0103,-0.002,-0.0058,-0.0038,-0.006,-0.0056,-0.0053,-0.004,-0.004,-0.0041,-0.0041,0,0.0488,0.0516,0.0576,0.0692,0.0777,0.0882,0.0984,0.1061,0.1119,0.1165,0.1244,0.1219,0.0957,0.0723,0.0364,0.02,0.001,-0.0037,-0.0012,-0.0011,-0.0001,-0.0022,-0.0019,-0.0044,-0.0044,-0.0044,-0.0044,-0.0043,0.0535,0.0574,0.066,0.0772,0.0875,0.1039,0.1154,0.1273,0.1404,0.1502,0.1454,0.1404,0.109,0.0637,0.0338,0.0001,0.0009,-0.0119,-0.0116,-0.0112,-0.0103,-0.0098,-0.0157,-0.0157,-0.0157,-0.0157,-0.0158,0,0.0593,0.0639,0.0741,0.0892,0.1033,0.1081,0.1286,0.1408,0.1594,0.1643,0.1683,0.1364,0.1066,0.071,0.0219,-0.0085,-0.0104,-0.0187,-0.0135,-0.013,-0.0126,-0.0116,-0.0174,-0.0175,-0.0175,-0.0176,0,0,0.0623,0.0719,0.0765,0.1008,0.1126,0.1346,0.1484,0.1642,0.1732,0.1785,0.1732,0.1615,0.1174,0.0813,0.0405,0.013,0.0071,0.0065,0.0109,0.0225,0.0234,-0.0061,-0.0037,0,0,0,0,0]}],[{"header":{"parameterUnit":"m.s-1","parameterCategory":2,"la1":30.2991,"la2":30.254,"lo1":-89.0895,"lo2":-89.0444,"dy":0.0017,"dx":0.0017,"nx":28,"ny":28,"refTime":"2024-02-17T09:00:00:Z","depth":"4","parameterNumber":2,"parameterNumberName":"U-component_of_CURRENTS"},"data":[0,0,0,0,0,0,0,0,0,0,0,0,0,0,0,0,0,0,0,0,0,0,0,0,0,0,0,0,0,0,0,0,0,0,0,0,0,0,0,0,0,0,0,0,0,0,0,0,0,0,0,0,0,0,0,0,0,0,0.1404,0.1405,0,0.1461,0.1462,0.1462,0.1509,0.151,0.1511,0.1511,0.1561,0.1561,0.1562,0,0,0,0,0,0,0,0,0,0,0,0,0,0.1329,0.133,0.1404,0.1405,0.1406,0.1461,0.1462,0.1462,0.1509,0.151,0.1511,0.1511,0.156,0.1561,0.1562,0,0,0,0,0,0,0,0,0,0,0,0,0,0.137,0.133,0.1404,0.1437,0.1441,0.1461,0.1462,0.1462,0.1509,0.151,0.1511,0.1512,0.156,0.1561,0.1562,0.1549,0,0,0.1565,0.1566,0,0,0,0,0,0,0,0,0.1367,0.1372,0.1431,0.1435,0.1439,0.1481,0.1453,0.1491,0.1509,0.1481,0.1511,0.1512,0.1534,0.1537,0.1543,0.1551,0.1553,0.1565,0.1566,0.1567,0.1567,0,0,0,0,0,0,0,0.1364,0.137,0.1425,0.1432,0.1437,0.1447,0.1454,0.1461,0.15,0.1484,0.1488,0.1497,0.1535,0.1542,0.1544,0.1554,0.1565,0.1566,0.1567,0.1567,0.1644,0.1645,0,0,0,0,0,0,0.136,0.1367,0.1423,0.1427,0.1407,0.1448,0.1455,0.1465,0.15,0.1507,0.1496,0.1499,0.154,0.1543,0.1546,0.1615,0.1566,0.1567,0.1568,0.1643,0.1644,0.1646,0,0,0,0,0,0,0.1359,0.1365,0.1421,0.14,0.1408,0.1448,0.1458,0.1465,0.1504,0.1509,0.1516,0.1531,0.154,0.1545,0.1586,0.1614,0.1568,0.1569,0.1641,0.1643,0.1645,0.1698,0,0,0,0,0,0,0.1356,0.1364,0.1383,0.1399,0.1409,0.1452,0.1458,0.1466,0.1507,0.1512,0.1541,0.1545,0.1542,0.1584,0.1587,0.1614,0.157,0.1639,0.1642,0.1644,0.1695,0.1702,0.1708,0,0,0,0,0,0.1353,0.137,0.1384,0.1392,0.143,0.1453,0.146,0.149,0.1508,0.1528,0.1554,0.1546,0.1603,0.1587,0.1589,0.1618,0.1638,0.1641,0.1644,0.1692,0.1701,0.1708,0,0,0,0,0,0,0.1346,0.1377,0.1393,0.1419,0.1445,0.1463,0.1488,0.1507,0.1543,0.1559,0.1563,0.1569,0.1616,0.161,0.1592,0.1648,0.1619,0.1623,0.1654,0.1663,0.1669,0.1679,0.1571,0,0,0,0,0,0.1353,0.1377,0.1403,0.1427,0.1444,0.1473,0.1493,0.1514,0.1541,0.156,0.158,0.1603,0.1624,0.164,0.1655,0.1684,0.1691,0.1704,0.1711,0.1717,0.1728,0.1768,0.1779,0.1656,0.1656,0.1656,0,0,0.1356,0.1377,0.1392,0.1429,0.1453,0.1479,0.1488,0.1527,0.1557,0.1557,0.1613,0.1631,0.1639,0.1676,0.1696,0.1678,0.1756,0.1721,0.1725,0.1733,0.1772,0.1784,0.1795,0.1658,0.1658,0.1658,0,0,0.1362,0.1396,0.1416,0.1443,0.1487,0.1505,0.1524,0.1562,0.1593,0.1638,0.1652,0.1692,0.1718,0.1735,0.1743,0.1796,0.1793,0.1802,0.1842,0.1881,0.1891,0.1901,0.1926,0.1937,0.1802,0.1802,0.1802,0,0.1368,0.1396,0.1426,0.1452,0.148,0.152,0.1548,0.158,0.163,0.1658,0.1665,0.1733,0.1745,0.1791,0.1816,0.1812,0.1831,0.1809,0.189,0.1899,0.1908,0.1932,0.1943,0.1805,0.1804,0.1804,0.1804,0,0.1383,0.1417,0.1434,0.1481,0.1512,0.1547,0.1591,0.1636,0.1677,0.1705,0.1774,0.1798,0.1838,0.1849,0.1851,0.1919,0.1913,0.1896,0.1869,0.1924,0.1945,0.1956,0.1809,0.1808,0.1807,0.1806,0,0,0.1363,0.1432,0.1441,0.1466,0.1535,0.1554,0.1619,0.1676,0.172,0.1776,0.1831,0.1884,0.191,0.1923,0.1937,0.1974,0.2054,0.197,0.1971,0.1994,0.2142,0.2007,0.2006,0.2057,0.2059,0.2061,0.2133,0,0.137,0.1419,0.1456,0.1504,0.1532,0.1592,0.1637,0.1698,0.1758,0.1821,0.187,0.1928,0.1933,0.1967,0.2009,0.2049,0.2086,0.2036,0.2087,0.2088,0.196,0.2015,0.2068,0.2141,0.2143,0.2145,0.2147,0,0.1363,0.1403,0.1453,0.1514,0.1533,0.1573,0.1661,0.1707,0.1803,0.1855,0.1932,0.1972,0.2058,0.2044,0.2146,0.2119,0.2143,0.2161,0.2164,0.2027,0.1973,0.2075,0.2166,0.2165,0.2163,0.2162,0.2161,0,0.1311,0.139,0.1432,0.1457,0.1537,0.1581,0.1633,0.1725,0.1769,0.1895,0.194,0.204,0.2096,0.2157,0.2216,0.2195,0.2311,0.2274,0.2171,0.2162,0.2239,0.2228,0.234,0.234,0.2339,0.2339,0.2339,0,0.1276,0.1305,0.142,0.1436,0.1486,0.156,0.1618,0.1691,0.1794,0.1841,0.1958,0.2008,0.2131,0.2205,0.2245,0.2248,0.2338,0.2191,0.2175,0.2258,0.2249,0.2246,0.2234,0.2342,0.2341,0.2341,0.234,0,0.1176,0.1258,0.1301,0.1415,0.1454,0.1487,0.1593,0.1629,0.1752,0.1824,0.187,0.2011,0.2112,0.2209,0.2313,0.2262,0.2294,0.227,0.2368,0.2354,0.2109,0.21,0.2148,0.2144,0.2141,0.2138,0.2136,0,0.1116,0.114,0.1265,0.1291,0.1344,0.1417,0.1456,0.1593,0.164,0.1802,0.1822,0.1966,0.2048,0.2091,0.2204,0.2271,0.2246,0.2238,0.2157,0.2112,0.2093,0.2088,0.2084,0.213,0.2129,0.2128,0.2127,0,0.1001,0.1067,0.1108,0.1176,0.1234,0.127,0.1356,0.1381,0.1531,0.1666,0.1743,0.1811,0.1911,0.2005,0.208,0.2119,0.2231,0.22,0.2206,0.213,0.209,0.2073,0.2073,0.2115,0.2117,0.2118,0.2119,0,0.0914,0.0924,0.1,0.1045,0.1097,0.1105,0.1169,0.1245,0.1317,0.1531,0.1556,0.1726,0.1883,0.1927,0.1997,0.2031,0.1991,0.1914,0.1935,0.1949,0.1853,0.177,0.1694,0,0,0,0,0,0.0831,0.0839,0.0861,0.0901,0.0937,0.0977,0.1085,0.1163,0.1337,0.135,0.1455,0.1553,0.1658,0.1752,0.1749,0.1895,0.1986,0.188,0.1903,0.2048,0.2062,0.1969,0,0,0,0,0,0,0.078,0.0797,0.0822,0.0765,0.0764,0.0795,0.0861,0.0982,0.1013,0.1208,0.1286,0.144,0.1578,0.1645,0.1711,0.1741,0.172,0.2004,0.2,0.2041,0.2053,0.2064,0.1973,0,0,0,0,0]},{"header":{"parameterUnit":"m.s-1","parameterCategory":2,"la1":30.2991,"la2":30.254,"lo1":-89.0895,"lo2":-89.0444,"dy":0.0017,"dx":0.0017,"nx":28,"ny":28,"refTime":"2024-02-17T09:00:00:Z","depth":"4","parameterNumber":3,"parameterNumberName":"V-component_of_CURRENTS"},"data":[0,0,0,0,0,0,0,0,0,0,0,0,0,0,0,0,0,0,0,0,0,0,0,0,0,0,0,0,0,0,0,0,0,0,0,0,0,0,0,0,0,0,0,0,0,0,0,0,0,0,0,0,0,0,0,0,0,0,0.0118,0.0118,0,0.0076,0.0075,0.0075,0.0046,0.0046,0.0045,0.0045,-0.0,-0.0001,-0.0002,0,0,0,0,0,0,0,0,0,0,0,0,0,0.014,0.0139,0.0118,0.0118,0.0117,0.0076,0.0075,0.0075,0.0046,0.0046,0.0045,0.0045,0.0,-0.0001,-0.0002,0,0,0,0,0,0,0,0,0,0,0,0,0,0.0116,0.0139,0.0118,0.0099,0.0096,0.0076,0.0075,0.0074,0.0046,0.0046,0.0045,0.0045,0.0001,-0.0001,-0.0002,-0.0009,0,0,-0.0007,-0.0008,0,0,0,0,0,0,0,0,0.0118,0.0115,0.0102,0.01,0.0097,0.0067,0.0066,0.0047,0.0046,0.0064,0.0045,0.0045,0.0023,0.0019,0.001,-0.0011,-0.0013,-0.0008,-0.0009,-0.0009,-0.001,0,0,0,0,0,0,0,0.0119,0.0117,0.01,0.0101,0.0099,0.008,0.0077,0.0062,0.0044,0.0062,0.006,0.0057,0.0021,0.0012,0.0009,-0.0013,-0.0008,-0.0009,-0.001,-0.0011,-0.0032,-0.0031,0,0,0,0,0,0,0.0129,0.0119,0.0102,0.0099,0.0108,0.008,0.0076,0.0076,0.0044,0.004,0.0058,0.0056,0.0015,0.0011,0.0008,0.001,-0.0009,-0.0011,-0.0012,-0.0032,-0.0032,-0.0031,0,0,0,0,0,0,0.0129,0.0128,0.0103,0.0108,0.0104,0.008,0.008,0.0075,0.0069,0.0041,0.0036,0.0057,0.0015,0.001,-0.0001,0.0008,-0.0011,-0.0013,-0.0033,-0.0032,-0.0032,0.0008,0,0,0,0,0,0,0.013,0.0128,0.0132,0.0109,0.0104,0.0098,0.008,0.0075,0.0068,0.0066,0.0038,0.0034,0.0014,0.0002,-0.0003,0.0005,-0.0014,-0.0033,-0.0032,-0.0032,0.0006,0.001,0.0013,0,0,0,0,0,0.0131,0.0137,0.0132,0.013,0.011,0.0099,0.0095,0.0076,0.0068,0.0069,0.005,0.0035,0.0004,0.0001,-0.0004,0.0003,-0.0034,-0.0033,-0.0032,0.0005,0.0009,0.0013,0,0,0,0,0,0,0.0145,0.0134,0.0129,0.013,0.0119,0.0094,0.0093,0.0081,0.0066,0.0066,0.0038,0.0032,0.0026,0.001,0.0007,-0.0,-0.0017,-0.0017,0.0013,0.0017,0.0021,0.0028,-0.0016,0,0,0,0,0,0.0152,0.0156,0.014,0.0142,0.0139,0.0118,0.0111,0.01,0.0084,0.0077,0.0058,0.004,0.0025,0.0018,0.0002,-0.0002,-0.0027,0.0001,0.0004,0.0007,0.001,-0.0019,-0.0018,-0.0028,-0.0028,-0.0028,0,0,0.0157,0.0152,0.0154,0.0146,0.0135,0.0135,0.0113,0.0109,0.0109,0.0075,0.007,0.0051,0.0026,0.0021,0.0017,0.0009,-0.0004,0.0008,0.0011,0.0012,-0.0018,-0.0017,-0.0016,-0.0028,-0.0028,-0.0028,0,0,0.017,0.0168,0.0176,0.0172,0.0163,0.0151,0.0153,0.0135,0.0128,0.012,0.0097,0.0083,0.0061,0.0045,0.0034,0.0048,0.0015,0.0045,0.0069,0.0041,0.0042,0.0042,0.0007,0.0004,0.0048,0.0048,0.0048,0,0.0176,0.0187,0.0175,0.0183,0.0185,0.0162,0.0172,0.016,0.014,0.0138,0.0126,0.0091,0.0073,0.0062,0.0068,0.0056,0.0032,0.0055,0.0045,0.0045,0.0044,0.0009,0.0005,0.005,0.005,0.005,0.0049,0,0.0193,0.0206,0.0212,0.0216,0.0214,0.0221,0.0207,0.0204,0.0192,0.0178,0.0165,0.0135,0.0115,0.0108,0.0091,0.0082,0.0062,0.0052,0.0035,0.0048,0.001,0.0005,0.0053,0.0052,0.0052,0.0051,0,0,0.0194,0.0221,0.0222,0.0243,0.0237,0.0243,0.0243,0.0239,0.0247,0.0217,0.0217,0.0187,0.0167,0.0154,0.0129,0.0106,0.0081,0.0082,0.008,0.0048,0.0012,-0.0004,-0.0011,0.0067,0.0066,0.0066,-0.0015,0,0.0212,0.0248,0.0248,0.0282,0.0303,0.029,0.0298,0.029,0.0277,0.027,0.0229,0.0222,0.0185,0.0183,0.015,0.0102,0.007,0.0103,0.0004,0.0001,-0.0014,-0.0016,0.0065,-0.0019,-0.002,-0.0021,-0.0021,0,0.0227,0.0255,0.0297,0.0339,0.0345,0.036,0.0375,0.038,0.0358,0.0347,0.0316,0.028,0.024,0.0212,0.0118,0.014,0.008,0.0036,0.0032,0.0001,-0.0024,-0.0034,-0.0031,-0.003,-0.003,-0.0029,-0.0028,0,0.025,0.0289,0.0332,0.0344,0.0379,0.0398,0.0415,0.0408,0.0431,0.0401,0.0408,0.0333,0.0316,0.0223,0.0122,0.0121,0.0015,0.0001,-0.0075,-0.0078,-0.0058,-0.0057,-0.0067,-0.0067,-0.0067,-0.0067,-0.0066,0,0.0276,0.031,0.0355,0.0383,0.0441,0.0446,0.05,0.0497,0.0509,0.0541,0.046,0.046,0.0321,0.0239,0.0133,0.0011,0.0017,-0.0074,-0.0098,-0.004,-0.0036,-0.0062,-0.006,-0.007,-0.0069,-0.0068,-0.0068,0,0.03,0.0324,0.0386,0.0438,0.0461,0.0507,0.0579,0.0617,0.0614,0.065,0.0647,0.0562,0.0445,0.0292,0.014,0.0043,-0.0081,-0.0125,-0.0056,-0.0075,-0.0161,-0.0156,-0.0222,-0.0223,-0.0224,-0.0225,-0.0226,0,0.0323,0.0357,0.0434,0.048,0.0513,0.0585,0.0639,0.067,0.0718,0.0716,0.074,0.0634,0.0553,0.0325,0.0152,-0.0076,-0.0104,-0.0175,-0.0168,-0.0159,-0.0176,-0.017,-0.0164,-0.0227,-0.0227,-0.0228,-0.0228,0,0.0372,0.0395,0.0444,0.0538,0.061,0.0696,0.0777,0.0819,0.0851,0.0847,0.082,0.0683,0.0542,0.0336,0.0151,-0.0007,-0.0135,-0.0186,-0.0185,-0.018,-0.0166,-0.0181,-0.0174,-0.0231,-0.0231,-0.0231,-0.023,0,0.0409,0.045,0.0514,0.0594,0.0685,0.0779,0.0821,0.0877,0.092,0.091,0.0898,0.073,0.0631,0.0372,0.0209,0.0036,-0.0007,-0.0056,-0.0063,-0.0061,0.0003,0.0044,0.0024,0,0,0,0,0,0.0444,0.0487,0.0567,0.066,0.0749,0.0808,0.0899,0.0932,0.0958,0.0952,0.0929,0.0794,0.0533,0.0421,0.0247,0.0177,-0.0046,-0.0034,-0.0108,-0.0251,-0.0247,-0.0201,0,0,0,0,0,0,0.0466,0.0537,0.0569,0.0696,0.0767,0.0882,0.0943,0.0965,0.0965,0.0953,0.0821,0.0749,0.0498,0.0632,0.0243,0.0189,0.0118,-0.0157,-0.0161,-0.0253,-0.0249,-0.0246,-0.0198,0,0,0,0,0]}]]